Regional Weather Roundup
Issued by NWS

Home | Current Version | Previous Version | Graphics & Text | Print | Product List | Glossary On
Versions: 1 2 3 4 5 6 7 8 9 10 11 12 13 14 15 16 17 18 19 20 21 22 23 24 25 26 27 28 29 30 31 32 33 34 35 36 37 38 39 40 41 42 43 44 45 46 47 48 49 50
000
ASUS43 KLOT 261308
RWRIL

ILLINOIS REGIONAL WEATHER ROUNDUP
NATIONAL WEATHER SERVICE CHICAGO/ROMEOVILLE IL
800 AM CDT MON SEP 26 2016

NOTE: "FAIR" INDICATES FEW OR NO CLOUDS BELOW 12,000 FEET WITH NO
SIGNIFICANT WEATHER AND/OR OBSTRUCTIONS TO VISIBILITY.

* THESE STATIONS ARE NOT UNDER NWS QUALITY CONTROL. THEY ALSO MAY NOT
  REPORT WEATHER SUCH AS PRECIPITATION OR FOG.

ILZ001-002-007-009-015-016-024-261400-
NORTHWEST ILLINOIS

CITY           SKY/WX    TMP DP  RH WIND       PRES   REMARKS
MOLINE         SUNNY     56  45  66 W10       30.08S
STERLING*      SUNNY     55  48  77 W10       30.05S
SAVANNA*       SUNNY     55  46  72 W8        30.04S
$$

ILZ003-004-008-010-011-017-018-261400-
NORTH CENTRAL ILLINOIS

CITY           SKY/WX    TMP DP  RH WIND       PRES   REMARKS
ROCKFORD       MOSUNNY   55  47  74 W12       30.03S
FREEPORT*      SUNNY     52  46  79 W12       30.04R
ROCHELLE*      SUNNY     54  49  83 W8        30.04S
DE KALB*       SUNNY     55  49  81 W13       30.02S
$$

ILZ005-006-012>014-019>023-261400-
NORTHEAST ILLINOIS

CITY           SKY/WX    TMP DP  RH WIND       PRES   REMARKS
CHICAGO-OHARE  CLOUDY    58  48  69 W9        29.99S
CHICAGO-MIDWAY CLOUDY    61  48  62 W10       30.00S
AURORA         CLOUDY    56  50  80 SW7       30.03R
LANSING*         N/A    N/A N/A N/A MISG      30.02R
JOLIET*        CLOUDY    59  53  79 W6        30.03S
WAUKEGAN       CLOUDY    57  48  72 W6        29.96S
DUPAGE AIRPORT CLOUDY    56  48  74 W9        30.01R
KANKAKEE*      CLOUDY    58  54  86 W9        30.05S
WHEELING       CLOUDY    58  48  69 W8        30.00R
MORRIS*        CLOUDY    57  50  77 W8        30.03S
ROMEOVILLE*    CLOUDY    57  54  88 W8        30.03R
NORTHERLY ISL    N/A     61  48  62 W3          N/A
$$

LMZ740>746-261400-
SOUTHERN LAKE MICHIGAN

STATION/POSITION SKY/WX   TEMP    WIND        PRES    VSBY  WAVE
                          AIR SEA DIR/SP/G                  HT/PER
                          (F)     (DEG/KT/KT) (MB)    (MI)  (FT/S)
SOUTHERN BUOY              63 71  260/ 21/ 25 1012.8F         5/ 5
WILMETTE HARBOR            60 63  290/ 14/ 17   N/A           1/ 2
HARRISON CRIB              62     270/ 13/ 16   N/A
BURNHAM HARBOR             61     250/  5/ 12   N/A
CALUMET HARBOR             60     260/  4/  9 1015.4R
BURNS HARBOR               62     280/ 15/ 22 1015.9R
MICHIGAN CITY              62     260/ 23/ 26   N/A
MICHIGAN CITY 6N           63 67  270/ 17/ 23   N/A           5/ 5
ST. JOSEPH                 64 66  280/ 19/ 23 1014.5R         6/ 6
$$

ILZ025>027-034>036-040-047-049-050-058-095>099-261400-
WEST-CENTRAL ILLINOIS

CITY           SKY/WX    TMP DP  RH WIND       PRES   REMARKS
QUINCY         MOSUNNY   55  48  77 W6        30.16R
GALESBURG*     SUNNY     54  46  76 W10       30.11S
MACOMB*        SUNNY     54  49  84 W8        30.15R
JACKSONVILLE*  MOSUNNY   55  53  91 W6        30.15R
PITTSFIELD*    SUNNY     56  52  86 W5        30.17R
$$

ILZ028>032-037-038-041>044-048-051>054-059>061-261400-
CENTRAL ILLINOIS

CITY           SKY/WX    TMP DP  RH WIND       PRES   REMARKS
PONTIAC        CLOUDY    58  54  85 W8        30.08R
BLOOMINGTON    CLOUDY    57  51  80 W10       30.11R
DECATUR        CLOUDY    60  53  77 W10G18    30.12R
PEORIA         SUNNY     56  50  80 W8        30.10S
LACON*         SUNNY     56  47  72 W8        30.08R
LINCOLN*       CLOUDY    59  54  82 CALM      30.12R
SPRINGFIELD    CLOUDY    58  54  86 W6        30.14R
TAYLORVILLE    CLOUDY    57  54  89 W6        30.13S
$$

ILZ033-039-045-046-055>057-062-063-261400-
EAST-CENTRAL ILLINOIS

CITY           SKY/WX    TMP DP  RH WIND       PRES   REMARKS
CHAMPAIGN      CLOUDY    58  55  90 W8        30.10R
RANTOUL*       CLOUDY    59  57  92 W5        30.08R
MATTOON        CLOUDY    58  54  86 W10       30.11R
PARIS*         CLOUDY    58  57  98 CALM      30.10S
$$

ILZ079-100>102-261400-
SOUTHWEST ILLINOIS

CITY           SKY/WX    TMP DP  RH WIND       PRES   REMARKS
BELLEVILLE     CLOUDY    60  60  99 W6        30.15R
CAHOKIA*       CLOUDY    62  56  80 W3        30.16R
SPARTA*        CLOUDY    58  57  96 W3        30.18R
$$

ILZ064>066-069>071-074>076-080>082-084>086-088>090-092>094-261400-
SOUTH-CENTRAL ILLINOIS

CITY           SKY/WX    TMP DP  RH WIND       PRES   REMARKS
CARBONDALE     CLOUDY    58  58 100 N6        30.17R
CAIRO*         PTSUNNY   61  57  86 N6        30.15R
EFFINGHAM*     CLOUDY    59  59 100 W6        30.14R
MARION         LGT RAIN  59  57  94 NW9       30.17R
MT. VERNON     CLOUDY    57  52  82 W3        30.15R
CENTRALIA*     CLOUDY    60  59  98 W7        30.16R
SALEM*         CLOUDY    60  58  92 W6        30.15R
METROPOLIS*    CLOUDY    63  58  86 N6        30.15R
$$

ILZ067-068-072-073-078-083-087-091-261400-
SOUTHEAST ILLINOIS

CITY           SKY/WX    TMP DP  RH WIND       PRES   REMARKS
LAWRENCEVILLE  LGT RAIN  59  56  89 W9        30.12R
FLORA*         MOSUNNY   60  58  93 NW6       30.13R
FAIRFIELD*       N/A     58  58  98 CALM      30.12F
HARRISBURG*    CLOUDY    60  57  89 NW8       30.15R
ROBINSON*      LGT RAIN  57  57  98 W9        30.11F
CARMI*         CLOUDY    59  58  96 NW10      30.12S
$$

ABBREVIATIONS USED IN REMARKS
   TC - TEMPERATURE IN CELSIUS
  WCI - WIND CHILL INDEX
   HX - HEAT INDEX
  VSB - VISIBILITY
$$




USA.gov is the U.S. government's official web portal to all federal, state and local government web resources and services.